Flag for Ecuador Weather past 2 weeks in Santo Domingo, Ecuador

Now
50 °F

Partly sunny.


Feels Like: 50 °F
Forecast: 72 / 90 °F
Wind: 2 mph from North

Location: Latacunga Airport

Current Time: Apr 18, 2015 at 9:15:52 AM

Latest Report: Apr 18, 2015 at 8:00 AM


Visibility: N/A

Pressure: 30.45 "Hg

Humidity: 88%

Dew point: 46 °F

Location of Santo DomingoLocation

Historic Weather in Santo Domingo — Graph

°F

Santo Domingo temperature yesterday

Maximum temperature yesterday: 68 °F (at 1:00 PM)
Minimum temperature yesterday: 48 °F (at 5:00 AM)
Average temperature yesterday: 55 °F

Past Weeks' High & Low Weather Summary

 TemperatureHumidityPressure
High84 °F (Apr 9, 11:00 AM)100% (Apr 5, 11:00 PM)30.51 "Hg (Apr 5, 11:00 PM)
Low45 °F (Apr 4, 1:00 AM)49% (Apr 9, 3:00 PM)29.83 "Hg (Apr 9, 11:00 AM)
Average56 °F84%30.40 "Hg
* Reported Apr 3 8:00 AM — Apr 18 8:00 AM, Santo Domingo, Weather by CustomWeather, © 2015

Note: Actual official high and low records may vary slightly from our data, if they occured in-between our weather recording intervals... More about our weather records

Advertising

Santo Domingo weather history for previous 24 hours

 ConditionsComfort  
Time TempWeatherWind HumidityBarometerVisibility
8:00 AM
Sat, Apr 18
50 °FPartly sunny.2 mph88%30.45 "HgN/A
7:00 AM46 °FPartly sunny.2 mph100%30.45 "HgN/A
6:00 AM46 °FPassing clouds.3 mph93%30.42 "HgN/A
4:00 AM46 °FPassing clouds.5 mph93%30.42 "HgN/A
3:00 AM50 °FPassing clouds.3 mph94%30.45 "HgN/A
2:00 AM50 °FPassing clouds.No wind94%30.45 "HgN/A
12:00 AM50 °FPassing clouds.No wind94%30.48 "HgN/A
11:00 PM
Fri, Apr 17
52 °FPassing clouds.No wind88%30.48 "HgN/A
10:00 PM50 °FPassing clouds.No wind94%30.48 "HgN/A
8:00 PM52 °FPassing clouds.No wind94%30.42 "HgN/A
7:00 PM52 °FPassing clouds.5 mph100%30.42 "HgN/A
5:00 PM54 °FLight rain. Partly sunny.3 mph94%30.36 "Hg5 mi
4:00 PM55 °FThunderstorms. Partly sunny.2 mph88%30.36 "HgN/A
3:00 PM64 °FThunderstorms. Partly sunny.12 mph60%30.36 "HgN/A
2:00 PM66 °FScattered showers. Scattered clouds.7 mph56%30.36 "HgN/A
1:00 PM68 °FScattered clouds.7 mph49%30.39 "HgN/A
12:00 PM66 °FScattered clouds.7 mph49%30.42 "HgN/A
10:00 AM59 °FScattered clouds.2 mph72%30.48 "HgN/A
9:00 AM54 °FPartly sunny.2 mph88%30.51 "HgN/A
Weather by CustomWeather, © 2015

See weather overviewHow to use our weather pages